Theta_e
311 310 310 310 311 314 314 315 316 315 315 315 314 314 313 313 312 312 311 311 311 318 319 320 318 317 317 316 316 315 315 315 315 315 316 316 317 320 322 323 326 335 338 340
310 311 312 314 315 315 316 315 314 313 313 314 313 313 312 313 312 311 311 310 310 319 319 317 316 316 315 314 314 313 312 312 312 312 312 313 314 317 318 321 324 325 326 328
312 313 313 313 314 315 315 314 313 313 313 313 313 313 311 313 313 313 312 313 313 319 317 316 314 313 312 311 311 310 310 310 309 308 308 309 311 313 314 316 317 320 322 324
316 315 315 315 314 313 313 315 317 316 317 317 313 317 315 314 313 313 313 317 317 316 314 312 310 309 309 308 308 308 307 306 305 305 304 304 306 308 308 309 310 313 316 318
316 316 316 317 316 314 315 317 312 312 315 317 315 314 313 312 313 315 318 317 315 313 311 309 308 308 307 306 306 305 304 303 302 301 301 301 302 303 304 305 306 308 311 313
315 313 314 315 315 315 316 314 311 310 313 317 316 314 314 312 315 321 319 316 313 311 309 307 307 306 305 304 303 303 301 300 299 298 298 298 298 299 300 301 302 303 306 309
314 315 314 315 316 315 316 312 315 314 315 314 313 315 313 322 320 320 316 312 310 308 307 306 305 303 303 301 300 299 297 296 296 295 296 295 296 296 297 298 300 301 302 304
313 314 314 314 315 316 315 312 315 319 317 315 314 317 320 318 315 313 311 309 308 306 305 304 302 301 300 298 297 296 295 294 293 292 292 293 293 294 295 296 297 299 300 302
312 315 312 313 312 314 313 312 312 315 315 315 313 318 315 314 314 312 310 309 308 306 305 303 301 300 298 297 295 294 293 292 291 290 290 290 291 292 293 294 295 296 298 300
312 314 314 314 309 309 310 308 314 315 318 318 314 314 322 318 315 313 310 308 305 303 302 302 300 298 296 295 293 292 292 290 289 288 289 289 290 291 292 293 294 296 298 299
312 312 314 313 312 308 308 308 308 314 313 316 316 315 318 317 315 312 309 306 303 301 300 299 298 297 294 293 292 291 290 290 288 288 288 289 290 290 291 292 293 295 296 298
309 313 315 315 312 310 308 310 310 309 309 309 310 310 317 316 314 311 307 305 301 300 298 297 296 294 292 291 291 290 289 289 288 288 288 289 289 289 290 290 291 293 294 295
310 310 312 312 312 312 312 308 309 310 310 310 312 311 314 314 311 309 306 302 300 299 297 295 293 292 291 290 289 289 288 288 288 288 288 288 288 288 288 289 290 290 291 293
309 310 311 312 312 310 308 308 307 307 308 308 308 308 309 312 310 306 303 299 297 296 295 294 292 291 290 289 288 288 287 287 287 288 288 288 288 287 287 287 287 288 289 290
306 307 309 308 308 308 309 308 306 307 306 307 306 308 308 308 306 304 302 299 296 295 293 292 291 289 288 288 287 287 287 287 287 287 288 288 288 287 286 285 285 285 287 288
306 308 304 305 305 305 305 303 303 303 304 303 303 304 306 304 302 300 299 296 295 293 292 290 289 288 287 287 287 287 287 286 287 287 287 287 287 287 287 286 285 285 285 286
307 306 304 305 303 302 301 302 304 302 306 306 301 306 302 299 297 296 294 293 292 291 289 288 287 287 287 287 286 286 286 286 286 286 286 286 287 287 287 286 285 285 285 285
306 305 304 305 302 303 305 304 303 304 304 305 305 302 298 295 293 292 291 290 289 288 287 286 286 286 286 286 286 286 286 285 285 285 285 285 285 286 286 286 286 285 284 284
304 303 303 302 303 303 303 302 299 299 301 300 301 300 296 293 291 291 290 289 288 286 285 285 285 285 285 285 285 285 285 284 283 283 283 284 283 283 284 284 285 284 284 283
302 301 300 302 302 296 304 302 302 300 298 297 297 299 298 296 296 290 290 289 288 286 285 285 285 285 285 284 285 285 285 285 284 281 281 282 282 281 282 283 282 283 283 282
301 301 301 301 300 303 301 299 300 299 295 296 296 296 299 295 291 288 287 288 289 288 287 286 285 285 285 285 284 285 285 285 285 284 282 280 280 279 279 280 281 280 281 281
302 303 300 298 299 303 297 299 301 297 295 294 294 292 291 289 288 288 288 288 288 287 287 286 285 285 284 284 285 285 284 285 285 285 284 282 280 279 278 278 278 279 279 279
303 300 305 300 298 297 296 296 296 295 294 294 292 291 290 288 288 287 287 287 287 286 286 285 285 284 283 283 283 283 285 284 284 284 283 283 281 280 279 277 277 277 278 278
303 303 299 300 298 296 295 294 293 292 292 292 291 290 289 288 287 287 287 287 286 286 285 284 283 283 282 282 282 282 283 283 283 283 283 283 282 281 279 278 278 277 277 277
300 302 301 299 297 295 295 293 292 291 290 290 289 289 288 288 287 287 287 286 286 285 284 283 282 281 281 281 281 282 282 283 282 282 282 282 282 282 280 279 278 278 278 278
297 298 302 300 296 297 294 292 291 290 290 289 289 288 287 287 286 286 285 285 285 284 283 281 281 280 280 280 280 280 281 282 282 282 282 282 282 281 281 281 280 280 278 277
Wind_Speed
8 6 7 13 14 15 13 16 18 17 14 11 14 21 14 13 9 9 7 8 9 14 13 23 26 25 26 24 24 24 23 21 19 24 25 26 26 24 19 20 16 18 28 36
8 17 12 13 14 15 16 18 19 19 18 15 18 19 14 14 10 9 9 9 11 16 15 17 22 24 25 24 21 21 20 20 21 20 20 21 23 15 24 21 18 15 20 24
18 9 12 17 19 18 19 18 17 20 10 10 12 12 12 13 19 15 10 13 4 19 18 16 15 24 27 26 23 21 21 19 19 22 21 21 22 23 23 27 27 24 24 23
17 15 17 19 19 14 20 12 17 16 10 6 4 9 15 19 19 22 18 12 19 17 15 16 12 21 24 24 23 23 19 18 19 21 23 23 16 17 23 30 35 36 35 34
26 20 18 21 22 17 20 10 13 12 11 9 21 1 10 11 16 12 19 16 14 18 13 15 13 22 27 25 24 22 19 19 21 23 22 23 22 21 22 23 29 36 38 38
21 17 15 19 20 7 9 5 5 5 1 5 17 3 18 9 8 13 18 12 15 15 16 14 22 24 27 26 25 21 21 21 24 24 22 20 22 25 26 28 28 27 31 39
14 18 20 17 15 3 3 3 4 4 1 10 4 9 9 6 15 8 19 16 13 15 15 13 13 16 22 26 24 19 21 20 22 22 20 20 20 23 25 24 26 30 31 31
7 8 2 6 5 7 6 5 5 4 2 5 6 5 2 14 18 20 16 15 15 15 13 13 12 21 22 21 21 21 22 22 23 24 23 21 21 22 24 24 25 29 31 34
2 4 4 4 2 1 1 5 7 2 5 6 4 2 5 11 11 16 14 14 11 11 14 17 18 20 19 19 20 22 23 22 24 26 26 25 23 23 26 28 29 30 32 35
7 7 3 3 4 3 4 0 3 2 3 4 4 5 2 4 8 11 11 8 9 13 12 10 10 14 16 18 18 21 22 23 26 27 27 28 29 29 29 30 30 31 34 35
4 4 0 3 3 4 2 2 2 4 4 3 3 3 2 12 11 7 9 8 11 11 10 9 11 15 17 18 21 22 23 25 27 26 29 29 29 30 30 30 30 30 32 31
1 4 3 7 4 4 4 6 9 5 5 3 2 5 4 7 5 7 9 11 13 13 12 11 14 18 20 22 24 25 26 25 26 26 27 27 26 27 26 26 28 29 30 29
5 1 1 4 3 2 4 4 5 2 4 3 2 3 3 5 5 13 10 14 13 13 14 12 14 17 20 23 24 24 26 26 25 27 27 26 26 26 26 26 26 25 26 24
5 3 5 6 1 1 3 7 8 4 3 4 9 10 6 2 9 9 9 12 13 12 13 12 11 15 19 21 22 23 24 25 25 26 26 26 28 28 27 26 27 27 27 25
4 3 3 6 9 8 8 15 8 7 7 6 10 7 8 6 12 9 12 13 13 12 12 11 12 13 18 19 21 23 22 25 27 28 28 30 29 28 27 26 26 27 27 28
2 1 3 2 7 10 11 10 11 7 5 7 8 2 13 12 14 14 12 12 11 10 11 12 12 16 18 20 20 19 23 27 29 28 30 32 29 26 25 28 33 34 35 30
4 3 3 3 2 5 4 4 3 6 6 3 4 3 10 12 14 11 11 10 11 11 11 9 10 13 15 17 20 23 25 29 28 30 32 30 28 26 29 31 32 33 32 32
7 5 3 2 2 3 2 9 8 4 10 7 8 10 11 12 11 10 9 9 9 9 9 6 11 14 16 19 21 23 27 27 28 30 30 33 31 30 33 33 33 34 34 35
5 4 2 3 3 4 2 5 4 3 2 8 4 10 13 14 11 10 9 10 9 7 9 11 15 15 17 20 20 22 26 25 28 29 30 30 33 31 32 34 33 32 34 37
5 5 4 1 3 4 2 4 7 6 3 5 6 5 10 10 2 2 7 7 8 12 12 13 14 14 15 17 17 21 19 20 26 29 28 27 29 32 33 30 33 31 33 36
3 2 5 2 3 1 3 3 2 2 3 4 6 6 4 3 2 10 7 5 9 10 11 13 13 14 14 15 20 21 21 22 21 25 33 35 31 31 32 30 31 33 31 34
5 5 3 2 2 6 5 3 3 1 3 4 7 7 14 14 11 9 7 7 10 10 10 9 11 14 19 22 22 18 23 22 23 21 25 35 36 32 35 33 33 31 33 33
1 4 3 2 2 4 4 4 4 5 4 3 6 7 11 13 11 9 8 7 10 10 11 12 13 16 19 21 20 22 19 21 23 25 25 26 34 34 31 36 34 33 32 30
2 3 4 4 5 6 7 6 7 7 7 6 8 10 9 12 10 9 8 7 8 9 12 14 15 16 17 17 19 21 22 20 22 23 25 24 23 30 32 30 31 32 32 31
2 2 6 4 6 7 7 7 8 8 8 9 9 9 9 10 9 8 7 9 9 12 14 14 15 15 16 17 22 23 23 22 22 24 25 24 25 22 25 27 28 30 33 32
3 1 1 1 9 5 8 9 10 9 8 8 10 10 11 11 9 11 10 9 12 15 16 17 16 16 14 17 20 25 23 24 24 21 22 25 23 25 23 19 21 25 27 27
Wind_Direction
210 199 200 218 228 233 255 265 273 286 298 290 285 297 291 291 270 254 233 217 217 116 117 94 86 79 76 68 60 42 34 26 15 1 353 347 340 326 313 303 308 270 260 249
266 241 217 239 251 261 270 276 280 285 289 286 287 285 290 296 275 230 239 228 215 127 115 103 89 78 74 69 61 45 32 17 12 359 349 343 334 321 316 313 319 319 293 293
241 252 233 244 254 255 256 257 267 268 295 325 335 308 304 299 283 277 249 249 173 131 120 102 89 82 75 66 59 48 32 17 5 358 346 336 321 317 327 316 310 303 299 299
247 259 262 274 276 288 287 295 301 314 353 304 53 293 297 280 285 292 295 98 105 95 87 89 82 76 71 60 50 42 29 17 8 356 352 349 343 327 318 311 306 298 294 292
260 262 262 268 265 272 280 343 337 317 284 291 272 20 270 289 295 338 88 86 75 93 84 80 78 77 62 49 42 35 21 8 355 348 348 343 334 324 316 310 309 302 294 290
258 260 257 257 256 263 305 300 283 294 209 268 270 204 274 261 278 102 93 72 80 75 81 71 68 64 56 47 38 27 9 357 347 344 342 339 331 322 316 312 307 302 301 296
261 259 254 252 256 12 317 348 343 322 161 253 338 255 266 59 43 106 117 104 83 75 71 68 65 59 56 45 36 23 7 357 351 346 336 330 321 313 302 300 299 299 298 294
266 300 288 4 224 172 217 177 156 255 278 305 320 272 30 18 65 58 14 61 77 74 70 69 65 54 49 42 29 18 7 354 347 340 332 324 318 310 301 295 290 286 285 285
203 262 38 10 171 201 344 234 178 214 300 283 231 112 121 74 60 85 52 39 41 66 59 48 50 51 45 32 24 13 4 353 344 337 333 327 322 315 303 297 291 284 280 280
214 255 58 317 26 325 172 156 86 72 243 254 277 267 140 131 105 117 143 129 93 75 70 65 65 61 47 35 18 10 3 355 344 339 335 328 324 320 311 305 296 288 284 280
87 113 329 92 200 194 250 231 236 155 157 226 320 301 346 146 173 156 152 121 89 75 70 54 56 47 38 28 15 9 359 353 348 341 336 331 325 321 317 309 302 296 292 285
343 125 193 229 261 11 321 225 226 197 238 218 189 284 129 130 192 177 118 103 85 74 67 50 40 32 24 16 10 5 358 353 349 343 338 332 327 325 322 318 316 311 305 300
171 78 202 337 255 282 244 238 251 177 145 183 258 243 123 158 156 42 74 72 71 63 51 41 32 24 18 13 7 1 356 351 348 348 345 340 340 339 335 335 328 333 328 321
92 158 183 232 138 34 310 247 256 225 170 218 233 267 253 166 116 119 99 85 71 58 45 36 30 23 18 11 3 358 354 355 352 351 351 352 355 352 350 347 354 353 353 350
122 160 214 282 274 260 250 275 257 244 227 214 253 238 252 99 100 98 90 86 70 53 41 32 26 20 15 9 5 1 359 359 357 357 358 359 359 2 8 5 10 9 10 10
165 150 75 286 294 286 283 279 284 278 259 280 280 291 76 73 80 71 76 77 70 58 42 32 29 22 13 9 1 359 3 4 6 5 3 2 3 7 13 20 23 24 21 16
142 127 126 252 357 1 304 242 279 264 50 20 69 38 97 77 72 71 76 72 65 58 50 35 32 23 10 5 6 10 10 13 12 12 9 3 4 9 19 25 27 27 27 31
152 163 152 214 70 233 98 53 56 61 54 43 93 99 98 97 85 67 62 77 76 67 59 32 30 21 16 16 18 19 21 16 17 15 9 8 7 15 21 26 27 29 29 33
146 138 163 164 201 276 3 10 45 90 60 24 42 124 127 124 105 76 76 78 83 76 64 55 48 37 29 32 31 35 33 25 26 18 12 10 15 17 23 25 26 28 31 35
142 124 123 12 180 233 167 3 34 67 282 17 6 10 163 168 105 134 103 97 105 104 87 69 58 48 37 35 43 43 30 28 34 28 22 19 21 25 24 23 27 31 36 39
107 97 184 186 228 202 57 349 345 101 230 343 323 287 254 117 85 123 114 102 103 126 106 85 63 47 36 31 45 44 34 30 33 33 38 39 33 29 32 31 33 32 35 39
159 172 185 168 189 249 359 281 204 79 72 51 59 95 108 112 111 114 109 99 86 87 97 92 78 56 43 37 40 37 43 40 45 38 37 42 41 36 35 36 34 34 37 38
96 158 120 112 176 98 45 81 52 72 108 87 107 103 116 116 115 112 108 98 94 91 100 85 69 56 42 36 34 28 40 43 48 45 42 37 42 43 37 39 36 35 36 38
123 171 104 146 143 132 121 93 81 78 98 95 106 113 114 116 118 116 106 99 95 96 89 84 73 61 48 36 34 37 42 43 44 42 39 39 37 43 46 44 45 44 39 38
213 137 119 82 123 117 121 124 121 110 102 106 102 112 117 120 110 109 105 100 106 96 91 88 80 69 53 45 45 47 46 47 43 43 40 38 39 38 47 53 52 55 50 46
16 72 164 156 152 90 132 135 133 124 120 117 116 109 100 109 107 102 96 107 100 99 99 91 85 74 58 53 49 47 49 51 51 46 41 41 44 46 48 51 62 56 50 47